Huntington North Reservoir Drain




Date Panel Temperatutre (degC) Battery Voltage (V) GPM (gpm) CFS (cfs)
11/01/2018 13.2 25.7 0.1
11/02/2018 13.2 25.9 0.1
11/03/2018 13.2 26.2 0.1
11/04/2018 13.2 26.4 0.1
11/05/2018 13.1 26.7 0.1
11/06/2018 13.2 26.9 0.1
11/07/2018 13.2 27.0 0.1
11/08/2018 13.2 27.1 0.1
11/09/2018 13.2 27.1 0.1
11/10/2018 13.2 27.3 0.1
11/11/2018 13.2 27.9 0.1
11/12/2018 13.2 27.9 0.1
11/13/2018 13.3 27.8 0.1
11/14/2018 13.2 28.0 0.1
11/15/2018 13.2 28.4 0.1
11/16/2018 13.2 28.8 0.1
11/17/2018 13.2 29.1 0.1
11/18/2018 13.1 29.3 0.1
11/19/2018 13.2 29.3 0.1
11/20/2018 13.2 29.5 0.1
11/21/2018 13.2 29.7 0.1
11/22/2018 13.2 29.9 0.1
11/23/2018 12.8 30.3 0.1
11/24/2018 13.1 30.6 0.1
11/25/2018 13.2 30.8 0.1
11/26/2018 13.2 30.5 0.1
11/27/2018 13.2 30.7 0.1
11/28/2018 13.1 31.2 0.1
11/29/2018 12.8 31.6 0.1
11/30/2018 12.6 31.9 0.1
Average 0.1
Maximum 0.1
Minimum 0.1
Total Volume (AF) 5.9